Regional Weather Roundup
Issued by NWS

Home | Current Version | Previous Version | Text Only | Print | Product List | Glossary On
Versions: 1 2 3 4 5 6 7 8 9 10 11 12 13 14 15 16 17 18 19 20 21 22 23 24 25 26 27 28 29 30 31 32 33 34 35 36 37 38 39 40 41 42 43 44 45 46 47 48 49 50
000
ASHW40 PHFO 022143
RWRHI

WEATHER ROUNDUP FOR HAWAII
NATIONAL WEATHER SERVICE HONOLULU HI
1100 AM HST TUE JUN 02 2015

THIS IS AN AUTOMATED REPORT THAT HAS NOT BEEN QUALITY CONTROLLED.

NOTE..."FAIR" INDICATES FEW OR NO CLOUDS BELOW 12,000 FEET WITH NO
SIGNIFICANT WEATHER AND/OR OBSTRUCTIONS TO VISIBILITY.

* - THESE SITES REPORT LIMITED FIELDS

HIZ001>004-022200-
KAUAI-NIIHAU-

CITY           SKY/WX    TMP DP  RH WIND       PRES   REMARKS
LIHUE APT      SUNNY     82  67  60 NE13      30.10F
PORT ALLEN*    NOT AVBL
POIPU*           N/A     82 N/A N/A NE10G18     N/A
PRINCEVILLE*     N/A     79 N/A N/A MISG        N/A
KOKOLE POINT*  NOT AVBL
MOLOAA DAIRY*  NOT AVBL
WAIMEA HTS*      N/A     91  64  40 W7G15       N/A  HX  93
PUU OPAE*        N/A     79  66  65 W8          N/A
PUU LUA*       NOT AVBL
MAKAHA RIDGE*    N/A     79  64  61 NW2G8       N/A
$$

HIZ005>011-022200-
OAHU-

CITY           SKY/WX    TMP DP  RH WIND       PRES   REMARKS
HONOLULU       MOSUNNY   86  61  42 NE15      30.05F
KALAELOA       PTSUNNY   82  63  52 VRB5      30.07F
KANEOHE MCB    PTSUNNY   81  68  64 NE10      30.06F
WHEELER FIELD  FAIR      80  64  57 E10       30.07F
BELLOWS*         N/A    N/A N/A N/A NE12        N/A
KAHUKU*          N/A    N/A N/A N/A E9G17       N/A
WHEELER*       NOT AVBL
WAIANAE HARBOR NOT AVBL
DILLINGHAM*      N/A     63  41  45 MISG        N/A
KAHUKU TRN*      N/A     72  59  64 E9G22       N/A
KAWAILOA*        N/A     77  64  65 E12G25      N/A
KII*             N/A     79  68  69 E13G18      N/A
MAKUA RANGE*     N/A     82  66  57 W7          N/A
OAHU FOREST NW   N/A    N/A N/A N/A CALM        N/A
SCHOFIELD BRK*   N/A     63  48  59 MISG        N/A
SCHOFIELD S*   NOT AVBL
WAIANAE VLY*     N/A     84  68  58 MISG        N/A
KUAOKALA*        N/A     79  66  65 NE13G30     N/A
HONOULIUULI*   NOT AVBL
MOKUOLOE IS*     N/A    N/A N/A N/A MISG        N/A
PALEHUA*         N/A     75  61  60 E3G9        N/A
WAIAWA PHB*    NOT AVBL
$$

HIZ012>013-022200-
MOLOKAI-

CITY           SKY/WX    TMP DP  RH WIND       PRES   REMARKS
MOLOKAI AIRPT  MOSUNNY   82  67  60 NE12G20   30.07S
KALAUPAPA      NOT AVBL
MAKAPULAPAI*     N/A     81  68  65 E16G23      N/A
MOLOKAI 1*       N/A     77  70  78 SE2         N/A
PUU ALII*        N/A     64  61  89 CALM        N/A
$$

HIZ016-022200-
KAHOOLAWE-

CITY           SKY/WX    TMP DP  RH WIND       PRES   REMARKS
KAHOOLAWE*       N/A     75 N/A N/A NE10G16     N/A
HAKIOAWA*        N/A     78  70  76 MISG      30.49S
HONOKANAIA*      N/A     84  67  55 N12G23    30.06F
KANELOA*         N/A     77  68  73 NE12G22   30.13S
KEALIALALO*      N/A     81  66  61 NE15G26   30.05F
LUA MAKIKA*    NOT AVBL
$$

HIZ014>015-022200-
LANAI-

CITY           SKY/WX    TMP DP  RH WIND       PRES   REMARKS
LANAI CITY     FAIR      78  67  68 NE17      30.10F
LANAI 1*         N/A     70  57  64 NE18G26     N/A
$$

HIZ017>028-022200-
MAUI-

CITY           SKY/WX    TMP DP  RH WIND       PRES   REMARKS
KAHULUI        PTSUNNY   82  68  62 NE22G29   30.07F
KAPALUA-W MAUI MOSUNNY   81  68  65 NE21G29   30.05
HANA AIRPORT   NOT AVBL
HANA*            N/A     79 N/A N/A E12         N/A
HALEAKALA SUMM   N/A     54  46  76 VRB9        N/A
MAALAEA BAY*   NOT AVBL
HALEAKALA*     NOT AVBL
KAUPO GAP*       N/A     72  64  78 SE3         N/A
KULA 1*          N/A     63  59  87 NW5         N/A
$$

HIZ023>026-022200-
BIG ISLAND OF HAWAII COAST AND LOWER SLOPES-

CITY           SKY/WX    TMP DP  RH WIND       PRES   REMARKS
KAILUA KONA    MOSUNNY   83  70  64 SW8       30.01F
HILO           CLOUDY    77  71  82 VRB3      30.07F
HONOKAA*       NOT AVBL
KAWAIHAE MWT*    N/A     82 N/A N/A W6          N/A
KAWAIHAE*        N/A     81 N/A N/A SW3         N/A
SOUTH POINT*     N/A     79 N/A N/A E16G24      N/A
UPOLU AIRPORT*   N/A    N/A N/A N/A NE20G26     N/A
KAMUELA*       NOT AVBL
HAKALAU*         N/A     65  60  83 E5G12       N/A
KALOKO-HONOKO*   N/A     86  72  62 S10       30.01S HX  92
PALI 2*          N/A     73  66  78 S5G10       N/A
KEALAKOMO*       N/A     90  72  55 NE17G24     N/A  HX  96
KAUPULEHU*       N/A     84  68  58 NW12G18     N/A
KAPAPALA*        N/A     79  67  65 S5G12       N/A
LOWER KAHUKU*    N/A     72  64  78 SE3G12      N/A
PUHE CS*         N/A     82  68  61 W3          N/A
PUHO CS*         N/A     83  70  64 SW6         N/A
PTA KEAMUKU*     N/A     73  63  68 CALM        N/A
WAIKOLOA*        N/A     86  66  51 NE13G25     N/A
$$

HIZ027>028-022200-
BIG ISLAND OF HAWAII INTERIOR AND SUMMMITS-

CITY           SKY/WX    TMP DP  RH WIND       PRES   REMARKS
BRADSHAW FIELD SUNNY     71  55  56 W13G18    30.36F
MK VISITOR CEN NOT AVBL
MAUNA KEA*       N/A     45  16  31 N9          N/A
MAUNA LOA*       N/A     54  39  58 MISG        N/A
MAUNA LOA 1*   NOT AVBL
PTA KIPUKA*      N/A     72  57  60 NW7G16      N/A
PTA RANGE 17*    N/A     70  55  60 W10G16      N/A
PTA WEST*        N/A     72  57  60 NW9G16      N/A
NENE CABIN*      N/A     64  52  63 SE5G12      N/A
AHUMOA*          N/A     64  58  81 N7G13       N/A
PTA PORTABLE*  NOT AVBL
PUU MALI*        N/A    N/A N/A N/A NE14        N/A
$$

HIC003-022200-
NORTHWEST ISLANDS-

CITY           SKY/WX    TMP DP  RH WIND       PRES   REMARKS
MIDWAY ISLAND  SUNNY    N/A N/A N/A W6        30.15R
MIDWAY NOS*    NOT AVBL
FRENCH FRIGATE NOT AVBL
$$

PHZ110>124-180-022200-
BUOY REPORTS

STATION/POSITION TIME  TEMP    WIND        PRES    WAVE   SWELL
                       AIR SEA DIR/SP/G            HT/PER HT/DIR
                 (UTC) (F)     (DEG/KT/KT) (MB)    (FT/S) (FT/D)
BUOY 51001       NOT AVBL
BUOY 51101       2100   76 76  120/ 14/ 16 1018.9F   6/16   5/150
BUOY 51100       NOT AVBL
BUOY 51002       2100   80 80   80/ 16/ 17 1016.0F   6/16   3/110
BUOY 51003       2100   79 80  100/ 12/ 14 1017.1F   6/15   5
BUOY 51004       2012   77 80   40/ 10/ 12 1015.9    6/16   5/200
BARBERS PT BUOY  NOT AVBL
WAIMEA BAY BUOY  2100      77                N/A     4/ 8   2/270
KAILUA BAY BUOY  2100      78                N/A     5/ 6   2/150
LANAI BUOY       NOT AVBL
BARBERS PT 2     2100      78                N/A     5/15   5/170
PAUWELA MAUI     2100      76                N/A     5/ 6   2/360
HILO             2100      77                N/A     5/ 7   2/360
KANEOHE BAY BUOY 2100      77                N/A     4/ 8   2/340
HANALEI KAUAI    2100      78                N/A     5/ 7
KAHULUI HARBOR   2100   77 79   50/ 13/ 19 1017.9F
HONOLULU HARBOR  2100   81 78   50/ 11/ 15 1017.9F
KILO NALU        NOT AVBL
HILO HARBOR      2100   75 78  310/  4/  5 1017.9F
MOKUOLOE         2100   77 78   50/  7/ 10 1019.0S
NAWILIWILI       2100   78 79   60/ 10/ 13 1018.8F
WHOTS BUOY       NOT AVBL
BUOY 51028       NOT AVBL
$$

......................KEY........................................
  SKY/WX - SKY CONDITIONS/PRESENT WEATHER
  TMP    - TEMPERATURE IN FAHRENHEIT
  DWPT   - DEWPOINT IN FAHRENHEIT
  RH     - RELATIVE HUMIDITY IN PERCENT
  WIND   - DIRECTION AND SPEED /MPH FOR ISLANDS...KTS FOR BUOYS/
  PRES   - MEAN SEA LEVEL PRESSURE IN INCHES OF HG
  VSB    - VISIBILITY IN MILES
  HX     - HEAT INDEX
  WCI    - WIND CHILL INDEX
  VRB    - VARIABLE WIND DIRECTION
  N/A    - NOT AVAILABLE


USA.gov is the U.S. government's official web portal to all federal, state and local government web resources and services.